Location: USNO
(38.9242°N, 77.0663°W)
Time: 07:16:37
(UTC-04:00)

Vanguard 2 - All Passes

Search period start: 17 October 2017 00:00
Search period end: 27 October 2017 00:00
Orbit: 554 x 2939 km, 32.9° (Epoch: 16 October)

Date Brightness Start Highest point End Pass type
(mag) Time Alt. Az. Time Alt. Az. Time Alt. Az.
17 Oct - 08:00:26 10° SSW 08:11:41 25° SSE 08:20:00 10° ESE daylight
17 Oct - 10:09:45 10° SW 10:21:54 45° SSE 10:29:25 10° E daylight
17 Oct - 12:21:39 10° WSW 12:31:14 55° S 12:37:01 10° ESE daylight
17 Oct - 14:33:24 10° W 14:39:25 33° SSW 14:43:38 10° SE daylight
18 Oct - 06:13:36 10° SSE 06:19:16 13° SE 06:24:23 10° ESE visible
18 Oct - 08:17:07 10° SSW 08:29:53 32° SSE 08:38:50 10° E daylight
18 Oct - 10:27:40 10° WSW 10:40:05 52° S 10:47:35 10° E daylight
18 Oct - 12:39:57 10° W 12:49:19 54° S 12:55:00 10° ESE daylight
18 Oct - 14:51:55 10° W 14:57:15 26° SSW 15:01:10 10° SSE daylight
19 Oct - 06:27:29 10° S 06:37:24 19° SE 06:45:41 10° ESE visible
19 Oct - 08:34:17 10° SW 08:48:05 40° SSE 08:57:22 10° E daylight
19 Oct - 10:45:46 10° WSW 10:58:15 57° S 11:05:42 10° E daylight
19 Oct - 12:58:19 10° W 13:07:23 50° SSW 13:12:55 10° ESE daylight
19 Oct - 15:10:41 10° WSW 15:14:59 19° SW 15:18:21 10° S daylight
20 Oct - 06:43:09 10° SSW 06:55:31 25° SSE 07:05:20 10° E visible
20 Oct - 08:51:49 10° SW 09:06:16 47° SSE 09:15:41 10° E daylight
20 Oct - 11:04:01 10° WSW 11:16:26 60° S 11:23:46 10° E daylight
20 Oct - 13:16:43 10° W 13:25:21 44° SSW 13:30:45 10° SE daylight
20 Oct - 15:30:07 10° WSW 15:32:37 13° SW 15:34:47 10° SSW daylight
21 Oct - 04:58:43 10° SSE 05:02:54 11° SE 05:06:54 10° SE visible
21 Oct - 06:59:36 10° SSW 07:13:38 32° SSE 07:24:21 10° E visible
21 Oct - 09:09:37 10° WSW 09:24:28 54° SSE 09:33:54 10° E daylight
21 Oct - 11:22:20 10° W 11:34:35 61° S 11:41:47 10° ESE daylight
21 Oct - 13:35:10 10° W 13:43:14 37° SSW 13:48:26 10° SE daylight
22 Oct - 05:11:15 10° S 05:20:54 17° SE 05:29:37 10° ESE visible
22 Oct - 07:16:35 10° SW 07:31:46 40° SSE 07:42:59 10° E daylight
22 Oct - 09:27:39 10° WSW 09:42:41 59° S 09:52:03 10° E daylight
22 Oct - 11:40:43 10° W 11:52:41 59° S 11:59:45 10° ESE daylight
22 Oct - 13:53:46 10° W 14:01:00 29° SSW 14:05:54 10° SSE daylight
23 Oct - 05:26:28 10° S 05:38:52 24° SE 05:49:45 10° E visible
23 Oct - 07:33:56 10° SW 07:49:55 47° SSE 08:01:24 10° E daylight
23 Oct - 09:45:51 10° WSW 10:00:54 63° S 10:10:10 10° E daylight
23 Oct - 11:59:09 10° W 12:10:45 54° SSW 12:17:40 10° ESE daylight
23 Oct - 14:12:35 10° W 14:18:38 22° SW 14:23:03 10° S daylight
24 Oct - 05:42:38 10° SSW 05:56:52 31° SSE 06:09:00 10° E visible
24 Oct - 07:51:36 10° SW 08:08:06 54° SSE 08:19:41 10° E daylight
24 Oct - 10:04:09 10° WSW 10:19:06 65° S 10:28:14 10° ESE daylight
24 Oct - 12:17:36 10° W 12:28:43 48° SSW 12:35:27 10° SE daylight
24 Oct - 14:31:55 10° WSW 14:36:10 15° SW 14:39:35 10° S daylight
25 Oct - 03:56:20 10° SSE 04:04:14 15° SE 04:11:57 10° ESE visible
25 Oct - 05:59:24 10° SSW 06:14:53 38° SSE 06:27:49 10° E visible
25 Oct - 08:09:31 10° WSW 08:26:19 60° SSE 08:37:53 10° E daylight
25 Oct - 10:22:32 10° W 10:37:17 65° S 10:46:16 10° ESE daylight
25 Oct - 12:36:08 10° W 12:46:34 40° SSW 12:53:06 10° SE daylight
26 Oct - 04:10:45 10° S 04:22:02 21° SE 04:32:58 10° E visible
26 Oct - 06:16:34 10° SW 06:32:57 45° SSE 06:46:22 10° E visible
26 Oct - 08:27:37 10° WSW 08:44:33 65° S 08:56:03 10° E daylight
26 Oct - 10:40:57 10° W 10:55:26 62° SSW 11:04:14 10° ESE daylight
26 Oct - 12:54:46 10° W 13:04:17 32° SW 13:10:31 10° SSE daylight
